Lapse_Rate
-0.1 -0.5 -0.3 -0.0 0.1 0.0 0.2 0.4 1.0 1.3 2.0 2.4 2.7 2.4 2.1 1.7 1.6 1.6 1.7 2.0 1.9 2.4
-0.4 -0.3 -0.2 0.1 -0.5 -0.4 -0.0 1.1 1.4 1.0 1.3 1.3 1.6 2.0 2.3 2.0 2.3 2.1 1.9 1.9 2.0 2.1
-0.1 -0.2 -0.3 -0.4 0.1 0.2 0.2 0.8 0.7 0.8 0.9 1.3 1.6 1.8 1.4 1.0 1.0 1.0 1.1 1.8 1.8 1.9
-0.1 -0.1 -0.3 -0.2 0.1 0.1 0.3 0.4 0.6 0.8 0.9 1.2 1.3 1.4 1.1 1.1 1.5 1.6 1.7 1.8 1.7 2.0
0.0 -0.2 -0.4 -0.2 0.3 0.2 0.4 0.4 0.4 0.5 0.7 0.8 0.9 0.9 1.0 1.1 1.6 1.4 1.4 1.6 1.6 1.8
-0.1 -0.5 -0.5 -0.1 0.3 0.5 0.5 0.4 0.4 0.6 0.6 0.8 0.9 0.9 0.8 0.6 0.9 0.9 1.0 1.3 1.3 1.5
-0.2 -0.6 -0.4 -0.0 0.2 0.3 0.5 0.5 0.4 0.4 0.6 0.7 0.9 1.0 1.2 1.4 1.1 0.9 1.1 1.1 0.8 0.6
-0.1 -0.2 -0.2 -0.2 -0.1 0.2 0.3 0.8 0.7 0.7 0.7 0.7 1.1 1.8 1.4 1.5 1.3 1.1 1.1 1.1 1.1 1.2
0.3 0.4 -0.1 -0.3 -0.1 0.0 0.2 0.5 0.6 0.5 0.7 0.9 1.8 3.4 4.5 4.5 1.8 1.8 1.5 1.2 1.4 1.3
0.8 0.6 0.2 0.2 0.4 0.3 0.5 0.8 0.8 0.7 0.8 0.9 1.1 3.5 4.7 5.3 3.3 2.2 1.6 1.3 1.3 1.8
1.6 1.4 1.2 1.0 1.0 0.7 0.6 0.7 0.9 0.9 0.9 1.0 1.6 4.1 5.0 5.5 3.8 2.9 2.2 2.0 1.9 1.7
1.8 1.7 1.8 1.8 1.8 1.9 1.8 1.3 1.0 1.6 2.0 1.5 1.8 3.9 4.7 5.0 3.2 2.9 2.4 2.2 2.0 1.8
2.9 2.3 2.5 3.3 4.0 3.6 3.6 4.2 3.3 2.9 2.2 2.8 2.1 4.0 4.9 5.0 2.9 2.4 2.0 2.0 1.9 3.9
4.5 4.5 5.1 4.8 5.2 5.8 5.5 5.4 4.8 4.2 4.0 3.4 3.3 2.8 5.0 5.8 3.6 2.7 2.7 2.1 2.4 2.3
Wind_Speed
3 2 3 2 2 3 2 3 3 3 3 4 4 4 3 2 3 3 3 4 3 2
5 5 5 5 4 3 3 3 3 3 3 3 3 3 3 3 4 2 2 4 4 3
6 5 5 4 5 5 4 2 4 3 3 4 4 4 3 3 4 4 3 3 4 3
6 6 6 6 5 5 3 3 3 3 3 4 4 4 3 4 5 4 4 4 4 5
6 6 6 6 6 5 5 3 4 3 4 4 4 4 4 5 4 4 5 5 4 6
7 7 7 7 6 5 5 5 4 4 5 5 5 4 4 4 5 5 5 5 5 6
8 8 7 6 6 6 6 6 6 5 5 5 5 5 5 5 5 5 4 4 5 5
7 6 6 6 6 6 6 6 6 5 5 5 4 4 5 5 5 5 5 5 5 5
4 5 7 6 7 6 6 6 6 6 6 6 4 8 9 7 5 5 5 5 6 5
5 7 6 6 6 6 7 5 6 6 6 6 6 9 10 10 5 5 6 6 5 5
5 6 6 5 6 6 5 6 6 6 6 6 5 9 10 10 5 5 6 6 6 6
4 5 5 6 6 5 4 5 6 5 6 6 6 11 11 8 5 6 7 6 6 6
7 5 5 6 7 3 3 7 4 5 6 9 7 13 12 9 4 5 5 5 6 12
6 7 5 5 2 4 5 4 5 6 7 6 7 9 13 13 5 5 4 4 5 4
Wind_Direction
225 227 250 266 279 284 267 274 286 305 293 289 291 283 262 247 247 224 242 251 239 257
212 215 232 249 240 238 250 254 295 308 288 281 272 267 275 272 283 293 267 255 243 236
212 222 233 237 251 247 267 273 311 309 294 288 281 268 244 241 237 226 243 244 247 244
220 223 228 232 242 246 250 261 267 277 289 286 278 268 253 260 274 269 277 275 254 262
218 219 227 232 240 238 247 254 258 267 271 269 259 258 251 265 273 256 260 263 267 270
224 220 229 234 236 241 248 253 258 251 254 262 265 268 262 250 256 250 252 264 266 270
224 220 225 232 233 234 236 244 244 243 248 254 265 266 268 264 260 260 255 261 256 257
228 221 229 234 236 236 237 241 246 251 255 256 252 250 254 253 247 249 269 270 262 255
226 234 234 233 236 237 242 241 245 244 242 249 241 251 266 260 241 248 247 255 260 255
241 250 249 238 240 241 240 233 243 250 244 253 258 262 267 264 242 240 244 244 252 273
287 271 271 243 243 244 234 232 237 242 242 243 255 257 267 272 257 259 262 252 255 256
324 302 296 276 269 267 259 244 232 228 240 229 257 255 247 246 233 245 254 239 237 233
352 6 350 330 317 298 250 268 265 251 232 234 245 261 254 247 219 244 250 253 245 251
7 2 344 316 291 303 307 299 289 287 283 271 252 267 268 261 221 225 242 243 263 239